This is the latest recevied weather packets stored in our database for station/object DB0TV-13. If no packets are shown the sender has not sent any weather packets the latest 10 day(s).
| Time | Temp. | Humidity | Pressure | Rain* | Wind** | Luminosity | Snow |
|---|---|---|---|---|---|---|---|
| 1777052419 | 15° C | 56% | 1020.3 hPa | 0 mm | - | 26 W/m² | - |
| 1777051819 | 15° C | 54% | 1020.3 hPa | 0 mm | - | 28 W/m² | - |
| 1777051218 | 16.11° C | 54% | 1020.4 hPa | 0 mm | - | 98 W/m² | - |
| 1777050620 | 16.11° C | 54% | 1020.5 hPa | 0 mm | - | 167 W/m² | - |
| 1777050020 | 16.11° C | 54% | 1020.6 hPa | 0 mm | - | 197 W/m² | - |
| 1777049419 | 16.11° C | 54% | 1020.5 hPa | 0 mm | - | 230 W/m² | - |
| 1777048818 | 16.11° C | 52% | 1020.6 hPa | 0 mm | - | 258 W/m² | - |
| 1777048220 | 16.11° C | 53% | 1020.7 hPa | 0 mm | - | 283 W/m² | - |
| 1777047620 | 16.67° C | 52% | 1020.8 hPa | 0 mm | - | 313 W/m² | - |
| 1777047018 | 16.67° C | 53% | 1021 hPa | 0 mm | - | 342 W/m² | - |
| 1777046418 | 16.11° C | 53% | 1021 hPa | 0 mm | - | 368 W/m² | - |
| 1777045821 | 16.11° C | 54% | 1021 hPa | 0 mm | - | 390 W/m² | - |
| 1777045218 | 16.11° C | 53% | 1021 hPa | 0 mm | - | 426 W/m² | - |
| 1777044618 | 16.11° C | 55% | 1021.1 hPa | 0 mm | - | 448 W/m² | - |
| 1777044020 | 16.11° C | 55% | 1021.3 hPa | 0 mm | - | 477 W/m² | - |
| 1777043418 | 15.56° C | 56% | 1021.2 hPa | 0 mm | - | 493 W/m² | - |
| 1777042820 | 16.11° C | 57% | 1021.3 hPa | 0 mm | - | 509 W/m² | - |
| 1777042221 | 15.56° C | 55% | 1021.5 hPa | 0 mm | - | 544 W/m² | - |
| 1777041620 | 16.11° C | 55% | 1021.6 hPa | 0 mm | - | 570 W/m² | - |
| 1777041020 | 15.56° C | 55% | 1021.6 hPa | 0 mm | - | 592 W/m² | - |
| 1777040420 | 16.11° C | 57% | 1021.7 hPa | 0 mm | - | 613 W/m² | - |
| 1777039820 | 15.56° C | 57% | 1021.8 hPa | 0 mm | - | 638 W/m² | - |
| 1777039220 | 15° C | 57% | 1021.7 hPa | 0 mm | - | 656 W/m² | - |
| 1777038620 | 15° C | 58% | 1021.9 hPa | 0 mm | - | 677 W/m² | - |
| 1777038020 | 15.56° C | 57% | 1022 hPa | 0 mm | - | 691 W/m² | - |
* Rain latest hour (hover to see other rain measurements)
** Current wind speed in m/s (hover to see current wind gust speed)